Location: Winthrop
(48.4780°N, 120.1850°W)
Time: 19:14:17
(UTC-07:00)

XW-2A - Pass Details

Date: 21 May 2022
Orbit: 397 x 413 km, 97.2° (Epoch: 29 June)

Event Time Altitude Azimuth Distance (km) Brightness Sun altitude
Exits shadow 22:30:28 - 205° (SSW) 1,581 ? -13.7°
Reaches altitude 10° 22:30:41 10° 207° (SSW) 1,504 ? -13.7°
Maximum altitude 22:33:25 25° 265° (W) 896 ? -14.0°
Drops below altitude 10° 22:36:10 10° 323° (NW) 1,515 ? -14.3°
Sets 22:38:25 0° 337° (NNW) 2,384 ? -14.5°
